Weather in Xojikent

Uzbekistan     41°38′08″N   69°56′58″E
В апреле 2022 года жителям России запретили посещать сайт meteo.paraplan.net по решению Генеральной прокуратуры. Аудитория сайта уменьшилась в 10 раз. Владельцы сайта не видят смысла в поддержке погодного сервера в таких условиях. Сайт будет закрыт в октябре.
temp.,
°C
wind,
m/s
gust,
m/s
humid.,
%
clouds,
%
prec.,
mm/h
press.,
hPa
HPBL,
m
4 october, tue
tue423:00+9e22434 0.0 102012
02:00+8ese21421 0.0 101911
05:00+7e22431 0.0 102010
08:00+11e2234100 0.0 1021115
11:00+16sw452583 0.0 10201801
14:00+17sw45201 0.0 10202077
17:00+15wsw33230 0.0 10201555
20:00+8nne11350 0.0 102312
5 october, wed
wed523:00+7e11390 0.0 102310
02:00+6ene22410 0.0 102211
05:00+5ene33430 0.0 102318
08:00+9e22290 0.0 1023130
11:00+14sw32150 0.0 10211278
14:00+16wsw33100 0.0 10201969
17:00+14wsw33150 0.0 1020593
20:00+7e11230 0.0 102210
6 october, thu
thu623:00+6ene32200 0.0 102313
02:00+6ne33230 0.0 102223
05:00+6ne44330 0.0 102331
08:00+10ene33300 0.0 1022138
11:00+17nw11130 0.0 10191287
14:00+19wnw44120 0.0 10182445
17:00+16wnw22150 0.0 1019379
20:00+10ene22220 0.0 102110
7 october, fri
fri723:00+9ene33220 0.0 102119
02:00+9ne43230 0.0 102124
05:00+8ne43230 0.0 102227
08:00+13ene33180 0.0 1021104
11:00+19wsw22110 0.0 10191401
14:00+20w43100 0.0 10182309
17:00+17w22130 0.0 1019154
20:00+11ne11210 0.0 102211
8 october, sat
sat823:00+10ene32220 0.0 102214
02:00+9ene33231 0.0 102221
05:00+9ne332422 0.0 102321
08:00+12ene221991 0.0 102384
11:00+18sw3313100 0.0 10211128
14:00+19sw4313100 0.0 10201757
17:00+16wsw23175 0.0 1021155
20:00+10nne22270 0.0 102311